GW6037 Weather Reports


time (UTC)temp
F
wind
direction
speed
knots
gust
knots
rain 1hr
in
rain 24hr
in
rain mn
in
humidity
%
barometer
mb
20260507200054 86 49 4.3 11.3 0.00 0.00 0.00 70 1016.8
20260507194550 86 66 2.6 8.7 0.00 0.00 0.00 70 1017.0
20260507193053 86 161 7.0 11.3 0.00 0.00 0.00 70 1017.0
20260507191555 86 23 5.2 11.3 0.00 0.00 0.00 70 1016.9
20260507190056 87 44 5.2 10.4 0.00 0.00 0.00 69 1016.9
20260507184555 87 342 3.5 10.4 0.00 0.00 0.00 69 1017.1
20260507183051 87 32 7.0 11.3 0.00 0.00 0.00 70 1017.3
20260507181603 86 317 4.3 9.6 0.00 0.00 0.00 72 1017.5
20260507180052 85 320 3.5 11.3 0.00 0.00 0.00 77 1017.6
20260507174604 85 9 7.0 10.4 0.00 0.00 0.00 76 1017.7
20260507173100 86 327 3.5 11.3 0.00 0.00 0.00 74 1017.9
20260507171559 87 11 7.0 12.2 0.00 0.00 0.00 71 1018.4
20260507170055 87 323 6.1 11.3 0.00 0.00 0.00 68 1018.5
20260507164556 87 320 6.1 11.3 0.00 0.00 0.00 71 1018.7
20260507163058 86 319 7.0 13.9 0.00 0.00 0.00 71 1018.8
20260507161553 86 313 7.8 12.2 0.00 0.00 0.00 69 1018.9
20260507160052 86 316 5.2 9.6 0.00 0.00 0.00 71 1019.1
20260507154551 86 333 6.1 10.4 0.00 0.00 0.00 71 1019.1
20260507153059 87 316 4.3 8.7 0.00 0.00 0.00 69 1019.1
20260507151552 86 9 6.1 11.3 0.00 0.00 0.00 69 1019.1
20260507150055 86 338 5.2 10.4 0.00 0.00 0.00 67 1019.2
20260507144552 85 352 6.1 10.4 0.00 0.00 0.00 69 1019.2
20260507143055 85 15 5.2 8.7 0.00 0.00 0.00 67 1019.2
20260507141555 85 330 5.2 10.4 0.00 0.00 0.00 68 1019.4
20260507140100 85 346 3.5 8.7 0.00 0.00 0.00 70 1019.3
20260507134555 86 22 3.5 7.0 0.00 0.00 0.00 64 1019.4
20260507133056 86 32 0.9 3.5 0.00 0.00 0.00 65 1019.2
20260507131600 85 44 2.6 5.2 0.00 0.00 0.00 67 1019.2
20260507130106 84 92 1.7 5.2 0.00 0.00 0.00 69 1019.1
20260507124554 82 48 2.6 4.3 0.00 0.00 0.00 72 1019.2
20260507123056 81 107 0.9 2.6 0.00 0.00 0.00 73 1019.1
20260507121604 80 342 2.6 4.3 0.00 0.00 0.00 75 1018.9
20260507120052 80 121 3.5 7.0 0.00 0.00 0.00 76 1018.7
20260507114604 79 73 3.5 7.0 0.00 0.00 0.00 77 1018.5
20260507113054 78 111 0.9 5.2 0.00 0.00 0.00 79 1018.3
20260507111551 77 0 0.9 3.5 0.00 0.00 0.00 79 1018.3
20260507110053 76 146 1.7 5.2 0.00 0.00 0.00 80 1018.3
20260507104552 75 138 1.7 5.2 0.00 0.00 0.00 82 1018.3
20260507103052 74 186 1.7 6.1 0.00 0.00 0.00 83 1018.3
20260507101600 74 159 1.7 5.2 0.00 0.00 0.00 84 1018.1
20260507100049 74 119 0.0 5.2 0.00 0.00 0.00 82 1017.9
20260507094549 74 89 1.7 7.0 0.00 0.00 0.00 82 1017.7
20260507093055 74 111 1.7 3.5 0.00 0.00 0.00 83 1017.5
20260507091557 74 132 0.9 5.2 0.00 0.00 0.00 84 1017.5
20260507090057 73 0 0.9 3.5 0.00 0.00 0.00 86 1017.6
20260507084555 74 103 0.9 2.6 0.00 0.00 0.00 86 1017.7
20260507083053 74 142 0.0 1.7 0.00 0.00 0.00 86 1017.8
20260507081600 75 79 0.9 1.7 0.00 0.00 0.00 85 1017.8
20260507080057 75 144 0.0 2.6 0.00 0.00 0.00 85 1017.7
20260507074602 75 0 0.0 7.0 0.00 0.00 0.00 85 1017.8
20260507073052 75 0 0.0 2.6 0.00 0.00 0.00 87 1017.8
20260507071551 74 99 0.9 4.3 0.00 0.00 0.00 89 1017.9
20260507070057 74 109 0.9 3.5 0.00 0.00 0.00 89 1018.0
20260507064555 74 120 3.5 7.8 0.00 0.00 0.00 89 1018.1
20260507063053 75 121 4.3 8.7 0.00 0.00 0.00 89 1018.2
20260507061556 75 107 4.3 7.8 0.00 0.00 0.00 89 1018.4
20260507060052 76 90 4.3 6.1 0.00 0.00 0.00 90 1018.5
20260507054628 77 104 3.5 6.1 0.00 0.00 0.00 90 1018.8
20260507053053 78 94 2.6 7.0 0.00 0.00 0.00 89 1018.9
20260507051549 79 107 1.7 3.5 0.00 0.00 0.00 88 1019.0
20260507050056 79 0 0.0 1.7 0.00 0.00 0.00 88 1019.2
20260507044554 79 167 0.9 1.7 0.00 0.00 0.00 88 1019.4
20260507043053 79 198 0.9 2.6 0.00 0.00 0.00 89 1019.6
20260507041559 79 0 0.0 0.0 0.00 0.00 0.00 88 1019.7
20260507040055 79 0 0.0 1.7 0.00 0.00 0.00 88 1019.8
20260507034558 79 190 0.9 2.6 0.00 0.00 0.00 88 1020.0
20260507033053 79 205 0.9 1.7 0.00 0.00 0.00 87 1020.1
20260507031604 79 0 0.0 0.0 0.00 0.00 0.00 87 1020.2
20260507030054 80 0 0.0 0.0 0.00 0.00 0.00 87 1020.2
20260507024549 80 0 0.0 0.0 0.00 0.00 0.00 86 1020.3
20260507023104 80 0 0.0 0.0 0.00 0.00 0.00 85 1020.3
20260507021550 81 0 0.0 0.0 0.00 0.00 0.00 85 1020.2
20260507020057 81 0 0.0 0.0 0.00 0.00 0.00 85 1020.2
20260507014601 80 134 0.0 1.7 0.00 0.00 0.00 85 1020.0
20260507013051 81 0 0.0 1.7 0.00 0.00 0.00 84 1019.8
20260507011551 81 0 0.9 3.5 0.00 0.00 0.00 83 1019.8
20260507010052 81 98 0.9 3.5 0.00 0.00 0.00 83 1019.7
20260507004554 81 0 0.9 3.5 0.00 0.00 0.00 83 1019.5
20260507003053 81 101 0.9 1.7 0.00 0.00 0.00 82 1019.6
20260507001559 82 0 1.7 2.6 0.00 0.00 0.00 81 1019.3
20260507000051 82 88 1.7 3.5 0.00 0.00 0.00 81 1019.2
20260506234551 82 65 2.6 4.3 0.00 0.00 0.00 80 1019.2
20260506233109 82 90 0.9 6.1 0.00 0.00 0.00 79 1018.9
20260506231553 83 73 0.9 3.5 0.00 0.00 0.00 77 1018.8
20260506230052 83 57 2.6 5.2 0.00 0.00 0.00 74 1018.5
20260506224552 83 341 3.5 7.8 0.00 0.00 0.00 74 1018.3
20260506223050 84 36 4.3 9.6 0.00 0.00 0.00 74 1018.2
20260506221552 84 350 5.2 7.8 0.00 0.00 0.00 74 1018.1
20260506220052 84 22 6.1 8.7 0.00 0.00 0.00 73 1017.8
20260506214552 85 296 3.5 9.6 0.00 0.00 0.00 73 1017.7
20260506213112 85 11 4.3 10.4 0.00 0.00 0.00 72 1017.7
20260506211551 85 28 5.2 10.4 0.00 0.00 0.00 72 1017.6
20260506210100 86 29 4.3 8.7 0.00 0.00 0.00 71 1017.7
20260506204558 86 352 4.3 10.4 0.00 0.00 0.00 72 1017.4
20260506203052 86 349 6.1 11.3 0.00 0.00 0.00 71 1017.5
20260506201553 86 23 3.5 9.6 0.00 0.00 0.00 70 1017.5